Weather reports worldwide

Advertisment
South Uist Range, United Kingdom (3023): temperature & dewpoint: 15.02.2019 20:00:00 - 21.02.2019 20:00:00 (GMT)South Uist Range, United Kingdom (3023): temperature -20cm & temperature -100cm: 15.02.2019 20:00:00 - 21.02.2019 20:00:00 (GMT)South Uist Range, United Kingdom (3023): wind speed & gusts: 15.02.2019 20:00:00 - 21.02.2019 20:00:00 (GMT)South Uist Range, United Kingdom (3023): wind direction: 15.02.2019 20:00:00 - 21.02.2019 20:00:00 (GMT)South Uist Range, United Kingdom (3023): reduced air pressure: 15.02.2019 20:00:00 - 21.02.2019 20:00:00 (GMT)South Uist Range, United Kingdom (3023): visibility: 15.02.2019 20:00:00 - 21.02.2019 20:00:00 (GMT)South Uist Range, United Kingdom (3023): precipitation: 15.02.2019 20:00:00 - 21.02.2019 20:00:00 (GMT)
Date & Time tt [°C] td [°C] tt -20cm [°C] tt -100cm [°C] ff [km/h] ff [kn] fx [km/h] fx [kn] dd ppp [hPa] vv [km] rr [mm]
21.02.2019 20:00:00 11,1 8,1 - - 44 24 65 35 SSE 1016,4 24 0,0
21.02.2019 19:00:00 11,6 8,9 - - 46 25 68 37 S 1016,2 18 0,0
21.02.2019 18:00:00 11,5 9,0 - - 44 24 65 35 S 1015,7 27 0,0
21.02.2019 17:00:00 12,1 9,4 - - 48 26 67 36 S 1014,9 35 0,0
21.02.2019 16:00:00 12,0 9,6 - - 46 25 65 35 S 1014,7 35 0,0
21.02.2019 15:00:00 12,1 9,8 - - 46 25 67 36 S 1014,0 35 0,0
21.02.2019 14:00:00 12,1 9,8 - - 46 25 63 34 S 1014,0 30 0,0
21.02.2019 13:00:00 11,9 10,0 - - 46 25 61 33 S 1013,3 28 0,0
21.02.2019 12:00:00 12,0 10,3 - - 42 23 59 32 S 1013,1 24 0,0
21.02.2019 11:00:00 11,5 10,1 - - 41 22 54 29 S 1012,4 16 0,0
21.02.2019 10:00:00 11,3 10,1 - - 35 19 48 26 S 1012,0 23 0,0
21.02.2019 09:00:00 11,1 10,2 7,4 7,0 37 20 50 27 S 1011,0 25 0,0
21.02.2019 08:00:00 11,1 10,1 - - 39 21 52 28 S 1010,0 4,5 0,0
21.02.2019 07:00:00 11,1 10,1 - - 37 20 52 28 S 1009,2 18 0,0
21.02.2019 06:00:00 10,7 9,9 - - 39 21 57 31 S 1008,5 19 0,0
21.02.2019 05:00:00 10,9 9,8 - - 42 23 55 30 S 1008,0 4,8 0,0
21.02.2019 04:00:00 11,1 9,8 - - 41 22 55 30 S 1007,3 20 0,0
21.02.2019 03:00:00 10,9 9,6 - - 39 21 59 32 S 1007,0 15 0,0
21.02.2019 02:00:00 10,7 9,2 - - 44 24 55 30 S 1006,9 18 0,0
21.02.2019 01:00:00 10,9 8,7 - - 39 21 50 27 S 1006,8 50 0,0
21.02.2019 00:00:00 10,3 7,9 - - 29 16 - - S 1006,7 40 0,0
20.02.2019 23:00:00 9,2 7,9 - - 26 14 - - S 1006,7 18 0,0
20.02.2019 22:00:00 8,6 7,4 - - 24 13 - - S 1006,5 18 0,0
20.02.2019 21:00:00 8,7 8,1 - - 28 15 - - S 1006,4 15 0,0
20.02.2019 20:00:00 8,7 7,8 - - 24 13 - - S 1006,2 10 0,0
20.02.2019 19:00:00 8,9 7,8 - - 28 15 - - SSW 1005,6 7 0,0
20.02.2019 18:00:00 8,8 7,5 - - 34 18 - - SW 1005,0 15 0,0
20.02.2019 17:00:00 9,1 7,6 - - 29 16 - - SSW 1004,6 10 0,0
20.02.2019 16:00:00 9,5 7,6 - - 29 16 54 29 SW 1003,7 10 0,0
20.02.2019 15:00:00 9,8 7,5 - - 39 21 54 29 SW 1003,2 16 -
20.02.2019 14:00:00 9,7 8,8 - - 29 16 - - SW 1002,3 8 -
20.02.2019 13:00:00 10,1 9,5 - - 26 14 - - SW 1000,6 9 -
20.02.2019 12:00:00 9,8 9,6 - - 41 22 63 34 SSW 999,6 2,0 0,0
20.02.2019 11:00:00 10,1 9,7 - - - - 63 34 - 998,6 3,2 0,2
20.02.2019 10:00:00 9,9 9,5 - - 46 25 65 35 S 998,1 2,0 0,0
20.02.2019 09:00:00 10,0 9,2 7,0 7,0 46 25 63 34 S 997,8 6 0,4
20.02.2019 08:00:00 9,9 9,1 - - 44 24 59 32 S 997,5 8 0,4
20.02.2019 07:00:00 10,1 9,2 - - 48 26 65 35 S 997,4 5 0,6
20.02.2019 06:00:00 10,5 9,2 - - 46 25 67 36 S 997,6 10 0,0
20.02.2019 05:00:00 10,3 9,3 - - 54 29 70 38 SSW 997,5 4,2 0,0
20.02.2019 04:00:00 10,1 9,4 - - 54 29 76 41 SSW 997,3 5 0,4
20.02.2019 03:00:00 10,1 9,6 - - 55 30 74 40 SSW 997,2 3,6 0,8
20.02.2019 02:00:00 10,0 9,7 - - 46 25 65 35 S 997,3 2,6 1,2
20.02.2019 01:00:00 9,6 9,3 - - 42 23 61 33 S 997,4 2,2 1,0
20.02.2019 00:00:00 9,3 8,9 - - 42 23 59 32 S 997,5 2,8 2,0
19.02.2019 23:00:00 9,1 8,4 - - 44 24 68 37 S 997,7 4,2 1,8
19.02.2019 22:00:00 8,7 7,7 - - 46 25 68 37 SSE 998,3 5 1,8
19.02.2019 21:00:00 8,0 6,9 - - 54 29 74 40 SSE 999,2 6 1,2
19.02.2019 20:00:00 7,5 6,4 - - 50 27 74 40 SSE 1000,4 5 1,0
19.02.2019 19:00:00 7,2 6,1 - - 50 27 68 37 SSE 1001,3 5 1,2
19.02.2019 18:00:00 7,1 5,5 - - 44 24 63 34 SSE 1002,1 6 0,6
19.02.2019 17:00:00 7,2 5,7 - - 37 20 52 28 SSE 1003,2 10 0,4
19.02.2019 16:00:00 7,5 5,5 - - 35 19 - - SSE 1004,3 15 0,0
19.02.2019 15:00:00 7,6 5,9 - - 28 15 - - S 1005,2 13 0,0
19.02.2019 14:00:00 8,2 6,6 - - - - - - - 1005,8 14 0,0
19.02.2019 13:00:00 - - - - - - - - - - 3,8 0,0
19.02.2019 12:00:00 - - - - - - - - - - 30 0,0
19.02.2019 11:00:00 - - - - - - - - - - 19 0,0
19.02.2019 10:00:00 6,9 6,2 - - 15 8 - - S 1007,1 35 0,0
19.02.2019 09:00:00 6,9 6,1 6,9 6,9 9 5 - - SSW 1007,2 10 0,0
19.02.2019 08:00:00 6,2 5,4 - - 13 7 - - SSE 1007,0 21 0,4
19.02.2019 07:00:00 6,3 4,9 - - 5 3 - - S 1006,7 5 0,2
19.02.2019 06:00:00 6,8 4,9 - - 8 4 - - WSW 1006,7 18 1,2
19.02.2019 05:00:00 7,2 4,6 - - 15 8 - - W 1006,8 20 0,0
19.02.2019 04:00:00 7,8 4,0 - - 15 8 - - W 1006,7 5 0,0
19.02.2019 03:00:00 7,6 3,6 - - 22 12 - - W 1006,5 21 0,0
19.02.2019 02:00:00 7,6 4,1 - - 26 14 - - W 1006,3 13 0,0
19.02.2019 01:00:00 8,1 5,1 - - 21 11 - - W 1006,0 12 0,0
19.02.2019 00:00:00 7,4 4,7 - - 24 13 - - WNW 1005,5 24 0,0
18.02.2019 23:00:00 7,1 4,6 - - 22 12 - - WNW 1005,1 8 0,0
18.02.2019 22:00:00 7,2 4,4 - - 24 13 48 26 NW 1004,6 9 0,0
18.02.2019 21:00:00 7,7 5,0 - - 31 17 57 31 WNW 1003,7 25 0,0
18.02.2019 20:00:00 7,8 5,2 - - 37 20 59 32 WNW 1002,5 16 0,0
18.02.2019 19:00:00 7,9 5,6 - - 39 21 61 33 WNW 1001,3 13 0,2
18.02.2019 18:00:00 7,7 5,6 - - 46 25 63 34 WNW 1000,2 4,6 0,0
18.02.2019 17:00:00 8,2 5,3 - - 39 21 52 28 W 999,1 4,8 0,2
18.02.2019 16:00:00 8,0 5,9 - - 31 17 48 26 W 998,2 15 0,4
18.02.2019 15:00:00 8,6 5,9 - - 31 17 50 27 W 997,3 16 0,2
18.02.2019 14:00:00 8,5 4,9 - - 31 17 - - W 996,6 21 0,0
18.02.2019 13:00:00 8,7 6,7 - - 29 16 - - W 995,8 16 0,6
18.02.2019 12:00:00 7,8 5,5 - - 26 14 50 27 W 995,4 5 0,0
18.02.2019 11:00:00 7,6 5,8 - - 24 13 50 27 W 994,4 16 0,2
18.02.2019 10:00:00 - - - - - - - - - - - 0,4
18.02.2019 09:00:00 - - - - - - - - - - - 0,2
18.02.2019 08:00:00 - - - - - - - - - - - 0,2
18.02.2019 07:00:00 - - - - - - - - - - - 0,0
18.02.2019 06:00:00 - - - - - - - - - - - 1,2
18.02.2019 05:00:00 7,9 6,2 - - 55 30 76 41 S 991,2 4,6 0,4
18.02.2019 04:00:00 7,8 5,1 - - 59 32 87 47 S 991,7 5 0,0
18.02.2019 03:00:00 7,8 4,9 - - 59 32 83 45 SSW 992,4 5 0,0
18.02.2019 02:00:00 8,1 4,9 - - 52 28 68 37 SSW 992,6 11 0,0
18.02.2019 01:00:00 7,3 5,5 - - 42 23 72 39 SSW 992,7 14 0,4
18.02.2019 00:00:00 7,8 6,3 - - 63 34 83 45 SSW 992,5 10 0,4
17.02.2019 23:00:00 7,8 6,2 - - 55 30 85 46 S 992,4 3,8 0,4
17.02.2019 22:00:00 8,3 5,7 - - 50 27 67 36 S 993,3 16 0,0
17.02.2019 21:00:00 8,2 5,4 - - 48 26 74 40 S 993,6 40 0,0
17.02.2019 20:00:00 8,8 5,8 - - 48 26 72 39 S 994,2 13 0,0
17.02.2019 19:00:00 8,4 5,9 - - 44 24 65 35 S 994,5 13 0,0
17.02.2019 18:00:00 8,3 6,0 - - 46 25 70 38 S 994,6 14 0,4
17.02.2019 17:00:00 8,2 5,6 - - 50 27 68 37 S 994,8 7 0,0
17.02.2019 16:00:00 8,8 5,7 - - 50 27 72 39 S 995,2 11 0,0
17.02.2019 15:00:00 9,0 5,8 - - 50 27 67 36 S 995,1 8 0,0
17.02.2019 14:00:00 9,1 6,7 - - 50 27 63 34 SSW 995,0 11 0,0
17.02.2019 13:00:00 7,5 6,2 - - 37 20 67 36 S 995,0 29 0,4
17.02.2019 12:00:00 8,2 7,2 - - 48 26 63 34 SSW 994,8 9 1,0
17.02.2019 11:00:00 8,9 8,1 - - 39 21 61 33 S 994,5 5 -
17.02.2019 10:00:00 9,0 7,7 - - 46 25 67 36 S 994,8 4,0 0,2
17.02.2019 09:00:00 9,7 8,0 6,9 6,7 48 26 67 36 S 995,0 13 0,0
17.02.2019 08:00:00 9,6 8,2 - - 46 25 65 35 S 995,5 10 0,0
17.02.2019 07:00:00 9,4 8,5 - - 50 27 63 34 S 995,8 9 0,8
17.02.2019 06:00:00 9,2 8,4 - - 37 20 63 34 S 996,6 2,3 0,8
17.02.2019 05:00:00 9,8 8,5 - - 50 27 67 36 S 997,1 6 0,0
17.02.2019 04:00:00 10,0 8,4 - - 44 24 72 39 S 998,1 14 0,0
17.02.2019 03:00:00 10,0 8,8 - - 48 26 67 36 S 998,8 11 0,2
17.02.2019 02:00:00 9,5 8,7 - - 48 26 63 34 S 999,5 4,5 0,4
17.02.2019 01:00:00 9,3 8,0 - - 46 25 72 39 S 1000,4 9 1,2
17.02.2019 00:00:00 9,0 7,7 - - 50 27 74 40 SSE 1001,1 6 0,6
16.02.2019 23:00:00 8,8 7,4 - - 46 25 63 34 SSE 1001,7 10 0,2
16.02.2019 22:00:00 8,7 7,2 - - 50 27 67 36 SSE 1002,7 11 0,4
16.02.2019 21:00:00 8,8 7,2 - - 48 26 68 37 SSE 1003,4 12 0,6
16.02.2019 20:00:00 8,8 7,2 - - 48 26 70 38 SSE 1004,0 9 0,6
16.02.2019 19:00:00 8,7 7,2 - - 48 26 65 35 SSE 1004,4 9 0,6
16.02.2019 18:00:00 8,6 6,8 - - 44 24 65 35 SSE 1004,6 14 0,2
16.02.2019 17:00:00 8,2 6,2 - - 46 25 67 36 S 1005,3 8 0,0
16.02.2019 16:00:00 8,5 6,0 - - 46 25 63 34 S 1006,0 15 0,0
16.02.2019 15:00:00 8,7 6,2 - - 44 24 61 33 S 1006,8 16 0,0
16.02.2019 14:00:00 9,0 6,8 - - 41 22 55 30 S 1007,5 22 0,0
16.02.2019 13:00:00 9,4 7,2 - - 35 19 54 29 S 1008,1 20 0,0
16.02.2019 12:00:00 9,5 7,2 - - 37 20 48 26 S 1008,6 16 0,0
16.02.2019 11:00:00 9,2 7,8 - - 34 18 61 33 SSW 1008,2 10 0,0
16.02.2019 10:00:00 9,0 8,4 - - 34 18 - - SSW 1007,7 9 0,2
16.02.2019 09:00:00 8,9 8,6 6,7 6,7 26 14 - - S 1007,1 1,9 0,0
16.02.2019 08:00:00 8,5 8,2 - - 24 13 - - SSW 1006,1 19 0,0
16.02.2019 07:00:00 8,5 8,2 - - 28 15 - - SSW 1005,8 2,6 0,0
16.02.2019 06:00:00 8,9 8,6 - - 24 13 - - S 1005,7 8 0,2
16.02.2019 05:00:00 8,8 8,4 - - 18 10 - - S 1006,0 10 0,0
16.02.2019 04:00:00 8,6 8,1 - - 11 6 - - SSE 1005,8 5 0,0
16.02.2019 03:00:00 8,5 8,0 - - 16 9 - - S 1006,3 5 0,0
16.02.2019 02:00:00 8,8 8,3 - - 18 10 - - SSW 1006,7 6 0,0
16.02.2019 01:00:00 8,2 7,7 - - 24 13 - - SSW 1006,3 5 0,0
16.02.2019 00:00:00 8,8 8,3 - - 26 14 - - SSW 1006,2 6 0,0
15.02.2019 23:00:00 9,1 8,6 - - 28 15 - - S 1005,9 5 0,0
15.02.2019 22:00:00 9,5 8,9 - - 34 18 46 25 SSW 1005,9 8 0,0
15.02.2019 21:00:00 9,4 8,9 - - 35 19 54 29 S 1005,8 8 0,8
15.02.2019 20:00:00 9,3 8,8 - - 41 22 52 28 S 1006,1 3,7 1,8

tt = temperature
td = dewpoint
tt -20cm = temperature -20cm
tt -100cm = temperature -100cm
ff = wind speed
fx = gusts
dd = wind direction
ppp = reduced air pressure
vv = visibility
rr = precipitation

Next stations